TimeEDT,TemperatureF,Dew PointF,Humidity,Sea Level PressureIn,VisibilityMPH,Wind Direction,Wind SpeedMPH,Gust SpeedMPH,PrecipitationIn,Events,Conditions,WindDirDegrees,DateUTC
12:19 AM,66.2,60.8,83,30.03,10.0,Calm,Calm,-,N/A,,Overcast,0,2013-08-30 04:19:00
12:30 AM,66.2,60.8,83,30.03,10.0,Calm,Calm,-,N/A,,Overcast,0,2013-08-30 04:30:00
12:43 AM,66.2,60.8,83,30.03,10.0,South,3.5,-,N/A,,Overcast,170,2013-08-30 04:43:00
12:53 AM,66.0,60.1,81,30.03,10.0,SE,3.5,-,N/A,,Mostly Cloudy,140,2013-08-30 04:53:00
1:39 AM,66.2,60.8,83,30.02,10.0,SSE,3.5,-,N/A,,Overcast,160,2013-08-30 05:39:00
1:53 AM,66.0,60.1,81,30.03,10.0,Calm,Calm,-,N/A,,Overcast,0,2013-08-30 05:53:00
2:53 AM,64.9,61.0,87,30.00,10.0,Calm,Calm,-,N/A,,Overcast,0,2013-08-30 06:53:00
3:03 AM,64.4,60.8,88,30.00,10.0,Calm,Calm,-,N/A,,Overcast,0,2013-08-30 07:03:00
3:53 AM,64.9,61.0,87,29.99,10.0,SSW,3.5,-,N/A,,Mostly Cloudy,210,2013-08-30 07:53:00
4:53 AM,64.9,61.0,87,29.99,10.0,South,3.5,-,N/A,,Overcast,190,2013-08-30 08:53:00
5:13 AM,64.4,62.6,94,29.98,10.0,SSE,4.6,-,N/A,,Overcast,150,2013-08-30 09:13:00
5:53 AM,64.9,62.1,90,29.99,10.0,SSE,4.6,-,N/A,,Overcast,150,2013-08-30 09:53:00
6:53 AM,64.9,62.1,90,30.00,10.0,South,4.6,-,N/A,,Overcast,180,2013-08-30 10:53:00
7:46 AM,66.2,62.6,88,29.99,10.0,SSE,5.8,-,N/A,,Overcast,160,2013-08-30 11:46:00
7:53 AM,66.0,62.1,87,29.99,10.0,South,3.5,-,N/A,,Overcast,180,2013-08-30 11:53:00
8:53 AM,66.9,63.0,87,29.99,6.0,SSW,3.5,-,N/A,,Overcast,210,2013-08-30 12:53:00
9:53 AM,69.1,64.0,84,29.98,10.0,Variable,4.6,-,N/A,,Overcast,0,2013-08-30 13:53:00
10:53 AM,72.0,66.0,81,29.97,10.0,SW,3.5,-,N/A,,Overcast,220,2013-08-30 14:53:00
11:17 AM,73.4,66.2,78,29.96,10.0,South,6.9,-,N/A,,Overcast,180,2013-08-30 15:17:00
11:53 AM,73.0,64.9,76,29.95,10.0,South,3.5,-,N/A,,Overcast,190,2013-08-30 15:53:00
12:25 PM,75.2,66.2,73,29.94,10.0,SW,3.5,-,N/A,,Mostly Cloudy,230,2013-08-30 16:25:00
12:53 PM,78.1,66.9,68,29.92,10.0,SSW,8.1,-,N/A,,Mostly Cloudy,200,2013-08-30 16:53:00
1:53 PM,80.1,66.0,62,29.90,10.0,Calm,Calm,-,N/A,,Mostly Cloudy,0,2013-08-30 17:53:00
2:53 PM,82.0,64.9,56,29.88,10.0,Calm,Calm,-,N/A,,Scattered Clouds,0,2013-08-30 18:53:00
3:53 PM,84.0,64.9,53,29.86,10.0,SW,6.9,-,N/A,,Mostly Cloudy,220,2013-08-30 19:53:00
4:53 PM,84.0,64.0,51,29.86,10.0,Variable,6.9,-,N/A,,Partly Cloudy,0,2013-08-30 20:53:00
5:53 PM,82.0,64.9,56,29.85,10.0,WSW,6.9,-,N/A,,Clear,240,2013-08-30 21:53:00
6:53 PM,81.0,64.9,58,29.85,10.0,SSW,4.6,-,N/A,,Clear,210,2013-08-30 22:53:00
7:53 PM,77.0,69.1,76,29.85,10.0,SSE,4.6,-,N/A,,Clear,160,2013-08-30 23:53:00
8:53 PM,73.9,68.0,82,29.85,10.0,South,5.8,-,N/A,,Clear,170,2013-08-31 00:53:00
9:53 PM,73.0,69.1,87,29.85,10.0,South,6.9,-,N/A,,Clear,170,2013-08-31 01:53:00
10:53 PM,73.0,69.1,87,29.85,9.0,South,5.8,-,N/A,,Clear,170,2013-08-31 02:53:00
11:53 PM,72.0,69.1,91,29.85,8.0,South,4.6,-,N/A,,Clear,180,2013-08-31 03:53:00